{"data":{"norad_id":58662,"epoch":"2026-05-25T04:02:53.907072Z","epoch_age_seconds":60217,"freshness":"FRESH","line1":"1 58662U 23208C   26145.16867948  .00009101  00000+0  27362-3 0  9992","line2":"2 58662  97.4475 264.5554 0007911  49.5203 310.6728 15.34598388134039","mean_motion":15.34598388,"eccentricity":0.0007911,"inclination_deg":97.4475,"raan_deg":264.5554,"arg_perigee_deg":49.5203,"mean_anomaly_deg":310.6728,"bstar":0.00027362,"rev_number":13403,"period_min":93.83562574158,"perigee_km":456.70233049572,"apogee_km":467.52497507856,"semimajor_km":6840.2506527871,"source":"CELESTRAK","updated_at":"2026-05-25T13:38:12.259183Z"}}